User: anonymous   Login
Location: ROBOsky.com Wild Flower Ridge Observatory
(43.9736°N, 79.9739°W)
Time: 12:29:44
(UTC-05:00)
Language:

Cosmos 1190 Rocket - Orbit

View from above orbital plane
View from above orbital plane
View from above satellite
View from above satellite

Ground track
Ground track

The orbit data is extracted from the following two-line orbital elements,

1 11870U 80056B   17053.20227231  .00000072  00000-0  33005-4 0  9995
2 11870  74.0514  58.8409 0015496  36.5463 323.6744 14.36839080918296
Epoch (UTC): 22 February 2017 04:51:16
Eccentricity: 0.0015496
inclination: 74.0514°
perigee height: 758 km
apogee height: 780 km
right ascension of ascending node: 58.8409°
argument of perigee: 36.5463°
revolutions per day: 14.36839080
mean anomaly at epoch: 323.6744°
orbit number at epoch: 91829

The dashed part of the orbit path shows where the satellite is in the earth's shadow,  

DLR